This is the latest recevied weather packets stored in our database for station/object KJ4RDP-13. If no packets are shown the sender has not sent any weather packets the latest 10 day(s).
| Time | Temp. | Humidity | Pressure | Rain* | Wind** | Luminosity | Snow |
|---|---|---|---|---|---|---|---|
| 1777989779 | 20° C | 54% | 1016 hPa | 0 mm | - | 555 W/m² | - |
| 1777989476 | 20° C | 54% | 1016.4 hPa | 0 mm | - | 518 W/m² | - |
| 1777989172 | 20° C | 55% | 1016 hPa | 0 mm | - | 497 W/m² | - |
| 1777988868 | 20° C | 57% | 1016 hPa | 0 mm | - | 510 W/m² | - |
| 1777988566 | 18.89° C | 61% | 1016 hPa | 0 mm | - | 491 W/m² | - |
| 1777988262 | 18.33° C | 59% | 1016 hPa | 0 mm | - | 458 W/m² | - |
| 1777987959 | 18.89° C | 62% | 1015.7 hPa | 0 mm | - | 417 W/m² | - |
| 1777987654 | 18.33° C | 70% | 1015.7 hPa | 0 mm | - | 381 W/m² | - |
| 1777987352 | 18.33° C | 71% | 1015.7 hPa | 0 mm | - | 361 W/m² | - |
| 1777987049 | 18.89° C | 67% | 1015.7 hPa | 0 mm | - | 330 W/m² | - |
| 1777986746 | 18.89° C | 64% | 1016 hPa | 0 mm | - | 329 W/m² | - |
| 1777986444 | 17.78° C | 66% | 1016 hPa | 0 mm | - | 266 W/m² | - |
| 1777986143 | 17.22° C | 68% | 1016 hPa | 0 mm | - | 288 W/m² | - |
| 1777985839 | 16.67° C | 71% | 1016 hPa | 0 mm | - | 260 W/m² | - |
| 1777985536 | 15.56° C | 73% | 1016 hPa | 0 mm | - | 245 W/m² | - |
| 1777985233 | 14.44° C | 77% | 1016 hPa | 0 mm | - | 229 W/m² | - |
| 1777984929 | 13.89° C | 83% | 1016.4 hPa | 0 mm | - | 231 W/m² | - |
| 1777984625 | 12.78° C | 84% | 1016 hPa | 0 mm | - | 210 W/m² | - |
| 1777984322 | 11.67° C | 86% | 1016 hPa | 0 mm | - | 195 W/m² | - |
| 1777984019 | 11.11° C | 89% | 1016 hPa | 0 mm | - | 170 W/m² | - |
| 1777983716 | 9.44° C | 95% | 1016.4 hPa | 0 mm | - | 152 W/m² | - |
| 1777983413 | 8.89° C | 99% | 1016 hPa | 0 mm | - | 96 W/m² | - |
| 1777983109 | 9.44° C | 99% | 1016 hPa | 0 mm | - | 68 W/m² | - |
| 1777982805 | 7.78° C | 99% | 1015.7 hPa | 0 mm | - | 58 W/m² | - |
| 1777982502 | 7.22° C | 99% | 1015.7 hPa | 0 mm | - | 58 W/m² | - |
* Rain latest hour (hover to see other rain measurements)
** Current wind speed in m/s (hover to see current wind gust speed)